King Salmon, AK

9:48 PM AKDT on May 22, 2018 (GMT -0800)
King Salmon

Weather History for PAKN - October, 2012

Change the Weather History Date:

Friday, October 5, 2012

  Actual Average Record
Temperature  
Mean Temperature 46 °F 39 °F  
Max Temperature 53 °F 47 °F 58 °F (2016)
Min Temperature 39 °F 31 °F 13 °F (1971)
Degree Days  
Heating Degree Days 19 26  
Month to date heating degree days 87 126  
Since 1 July heating degree days 1410 1264  
Cooling Degree Days 0 0  
Month to date cooling degree days 0 0  
Year to date cooling degree days 0 1  
Moisture  
Dew Point 41 °F    
Average Humidity 0    
Maximum Humidity 0    
Minimum Humidity 0    
Precipitation  
Precipitation 0.00 in 0.08 in 0.64 in (1994)
Month to date precipitation 0.27 0.42  
Year to date precipitation 20.32 15.21  
Snow  
Snow 0.00 in 0.00 in - ()
Month to date snowfall 0.0 0.1  
Since 1 July snowfall T 0.2  
Since 1 September snowfall 0.0 0.2  
Snow Depth 0.00 in    
Sea Level Pressure  
Sea Level Pressure 30.04 in    
Wind  
Wind Speed 14 mph (SSE)    
Max Wind Speed 29 mph    
Max Gust Speed 38 mph    
Visibility 10 miles    
Events      
T = Trace of Precipitation, MM = Missing Value Source: NWS Daily Summary

Daily Weather History Graph

Daily Weather History Graph

Search for Another Location

Airport or City:

Astronomy

Oct. 05, 2012 Rise Set
Actual Time 8:41 AM AKDT 7:46 PM AKDT
Civil Twilight 8:01 AM AKDT 8:26 PM AKDT
Nautical Twilight 7:15 AM AKDT 9:12 PM AKDT
Astronomical Twilight 6:27 AM AKDT 10:00 PM AKDT
Moon 10:11 PM AKDT (10/5) 3:07 PM AKDT (10/5)
Length of Visible Light 12h 24m
Length of Day
11h 04m
Waning Gibbous, 73% of the Moon is Illuminated
Oct 5
Waning Gibbous
Oct 7
Last Quarter
Oct 15
New
Oct 21
First Quarter
Oct 29
Full

Hourly Weather History & Observations

Time (AKDT) Temp. Windchill Dew Point Humidity Pressure Visibility Wind Dir Wind Speed Gust Speed Precip Events Conditions
12:54 AM 48.0 °F - 41.0 °F 77% 30.01 in 10.0 mi SSE 17.3 mph 26.5 mph N/A   Scattered Clouds
1:54 AM 48.0 °F - 41.0 °F 77% 30.02 in 10.0 mi SSE 19.6 mph - N/A   Scattered Clouds
2:54 AM 46.9 °F - 39.9 °F 77% 30.03 in 10.0 mi SSE 17.3 mph - N/A   Scattered Clouds
3:54 AM 46.9 °F - 39.9 °F 77% 30.03 in 10.0 mi SSE 18.4 mph - N/A   Scattered Clouds
4:54 AM 46.9 °F - 39.9 °F 77% 30.04 in 10.0 mi SSE 15.0 mph - N/A   Scattered Clouds
5:54 AM 46.9 °F - 39.9 °F 77% 30.04 in 10.0 mi SSE 17.3 mph - N/A   Scattered Clouds
6:54 AM 46.9 °F - 39.9 °F 77% 30.04 in 10.0 mi SSE 15.0 mph - N/A   Mostly Cloudy
7:54 AM 46.9 °F - 39.9 °F 77% 30.04 in 10.0 mi SSE 13.8 mph - N/A   Scattered Clouds
8:54 AM 46.9 °F - 39.9 °F 77% 30.04 in 10.0 mi SSE 10.4 mph - N/A   Mostly Cloudy
9:54 AM 46.0 °F 43.9 °F 39.9 °F 79% 30.04 in 10.0 mi South 4.6 mph - N/A   Mostly Cloudy
10:54 AM 48.0 °F - 41.0 °F 77% 30.03 in 10.0 mi South 16.1 mph - N/A   Overcast
11:54 AM 48.9 °F - 41.0 °F 74% 30.03 in 10.0 mi South 16.1 mph - N/A   Overcast
12:54 PM 50.0 °F - 39.9 °F 68% 30.04 in 10.0 mi South 18.4 mph 26.5 mph N/A   Mostly Cloudy
1:54 PM 51.1 °F - 42.1 °F 71% 30.04 in 10.0 mi South 19.6 mph 31.1 mph N/A   Mostly Cloudy
2:54 PM 53.1 °F - 42.1 °F 66% 30.05 in 10.0 mi South 27.6 mph 33.4 mph N/A   Mostly Cloudy
3:54 PM 51.1 °F - 42.1 °F 71% 30.05 in 10.0 mi South 26.5 mph 31.1 mph N/A   Mostly Cloudy
4:54 PM 51.1 °F - 42.1 °F 71% 30.04 in 10.0 mi South 17.3 mph 23.0 mph N/A   Mostly Cloudy
5:54 PM 50.0 °F - 42.1 °F 74% 30.04 in 10.0 mi South 13.8 mph - N/A   Mostly Cloudy
6:54 PM 48.0 °F - 42.1 °F 80% 30.04 in 10.0 mi South 9.2 mph - N/A   Mostly Cloudy
7:54 PM 46.9 °F - 42.1 °F 83% 30.05 in 10.0 mi South 9.2 mph - N/A   Mostly Cloudy
8:54 PM 46.0 °F 41.0 °F 42.1 °F 86% 30.07 in 10.0 mi South 10.4 mph - N/A   Mostly Cloudy
9:54 PM 45.0 °F 40.6 °F 41.0 °F 86% 30.07 in 10.0 mi SSE 8.1 mph - N/A   Mostly Cloudy
10:54 PM 43.0 °F 38.2 °F 39.9 °F 89% 30.08 in 10.0 mi SSE 8.1 mph - N/A   Mostly Cloudy
11:54 PM 43.0 °F 38.2 °F 39.0 °F 86% 30.08 in 10.0 mi SSE 8.1 mph - N/A   Scattered Clouds